Temperature
15 15 15 15 15 15 15 15 15 15 15 15 15 15 15 15 15 15 15 15 15 15 14 14 14 14 14 15 15 14 14 14 15 15 15 14 14 14 15 15 15 15 15
15 15 15 15 15 15 15 15 15 15 15 15 15 15 15 15 14 14 14 14 14 14 14 14 14 14 14 14 14 14 14 14 15 15 14 14 14 14 14 14 14 14 14
15 15 15 15 15 15 15 15 15 15 15 15 15 14 14 14 14 14 14 14 14 14 14 14 14 14 14 14 14 14 14 14 14 14 14 14 14 14 14 14 14 14 14
15 15 15 15 15 15 15 15 15 14 14 14 14 14 14 14 14 14 14 14 14 14 14 14 14 14 14 14 14 14 14 14 14 14 14 14 14 14 14 14 14 14 14
15 15 15 15 15 15 15 14 14 14 14 14 14 14 14 14 14 14 14 14 14 14 14 14 14 14 13 13 13 13 14 14 14 14 14 14 14 14 14 14 14 14 14
15 15 15 14 14 14 14 14 14 14 14 14 14 14 14 14 14 14 14 14 14 13 13 13 13 13 13 13 13 13 13 13 13 13 13 14 14 14 14 14 13 13 14
14 14 14 14 14 14 14 14 14 14 14 14 14 14 14 14 14 14 14 13 13 13 13 13 13 13 13 13 13 13 13 13 13 13 13 13 13 13 13 13 13 13 13
14 14 14 14 14 14 13 13 13 13 13 13 13 13 13 13 13 13 13 13 13 13 13 13 13 13 13 13 13 13 13 13 13 13 13 13 13 13 13 13 13 13 13
14 14 14 14 13 13 13 13 13 13 13 13 13 13 13 13 12 13 13 13 13 13 13 13 13 13 13 13 13 13 12 12 12 13 13 13 13 13 13 13 13 13 13
13 13 13 13 13 13 13 13 13 13 13 13 13 13 13 13 12 12 12 12 12 12 13 13 12 13 12 12 12 12 12 12 12 12 12 12 12 12 13 13 13 13 13
13 13 13 13 13 13 13 12 12 12 12 12 12 12 12 12 12 12 11 12 12 12 12 12 12 12 12 12 12 12 12 12 12 12 12 12 12 12 12 12 12 12 12
13 13 13 13 13 12 12 12 12 12 12 12 12 12 12 12 12 12 11 11 11 12 12 12 12 12 12 12 12 12 12 12 12 12 12 12 12 12 12 12 12 12 12
13 12 12 12 12 12 12 12 12 12 12 12 12 12 12 12 12 12 11 11 11 11 11 11 11 11 11 12 12 12 12 12 12 12 12 12 12 12 12 12 12 12 12
12 12 12 12 12 12 12 12 12 11 11 11 11 11 11 11 11 11 11 11 10 11 11 11 11 11 11 11 11 11 11 11 11 11 11 11 12 12 12 12 11 12 11
12 12 12 12 12 12 12 12 11 11 11 11 11 11 11 11 11 11 11 10 10 10 10 11 11 11 11 11 11 11 11 11 11 11 11 11 11 11 11 11 11 11 11
12 12 12 12 11 11 11 11 11 11 11 11 11 11 11 11 11 11 10 10 10 10 10 10 10 10 10 10 11 11 11 11 11 11 11 11 11 11 11 11 11 11 11
12 11 11 11 11 11 11 11 11 11 11 11 11 11 10 10 10 10 10 10 10 10 10 10 10 10 10 10 10 10 10 11 11 11 11 11 11 11 11 11 11 11 11
11 11 11 11 11 11 11 10 10 10 10 10 10 10 10 10 10 10 10 10 10 10 10 10 10 10 10 10 10 10 10 10 10 10 11 11 11 11 11 11 10 11 11
11 11 11 10 10 10 10 10 10 10 10 10 10 10 10 10 10 10 10 10 9 9 9 9 9 10 10 10 10 10 10 10 10 10 10 11 11 10 11 10 10 10 10
11 10 10 10 10 10 10 10 10 10 9 9 9 9 9 9 9 9 9 9 9 9 9 9 9 9 9 10 10 10 10 10 10 10 10 10 10 10 10 10 10 10 10
10 10 10 10 10 10 10 10 9 9 9 9 9 9 9 9 9 9 9 9 9 9 9 9 9 9 9 9 9 9 10 10 10 10 10 10 10 10 10 10 10 10 10
10 10 10 10 9 9 9 9 9 9 9 9 9 9 9 9 9 9 9 9 9 9 9 9 9 9 9 9 9 9 9 9 9 9 10 10 10 10 10 10 10 10 10
10 10 9 9 9 9 9 9 9 9 9 9 8 9 9 9 9 9 9 9 9 9 9 9 9 9 9 9 9 9 9 9 9 9 9 9 9 10 10 9 9 9 9
9 9 9 9 9 9 9 9 9 9 8 8 8 8 8 8 8 8 8 9 9 9 9 9 9 9 9 9 9 9 9 9 9 9 9 9 9 9 9 9 9 9 9
9 9 8 8 8 8 8 8 8 8 8 8 8 8 8 8 8 8 8 8 8 9 9 8 8 8 8 8 8 8 8 8 8 8 8 8 8 9 9 9 9 9 9
8 8 8 8 8 8 8 8 8 8 8 8 8 8 8 8 8 8 8 8 8 8 8 8 8 8 8 8 8 8 8 8 8 8 8 8 8 8 8 9 9 9 9
Wind_Speed
3 3 4 4 5 5 4 4 4 6 6 7 7 7 7 7 8 8 8 11 10 10 11 10 11 11 11 11 11 11 11 11 11 10 9 8 8 8 8 8 8 9 9
4 4 4 4 4 5 5 5 5 5 4 4 5 6 5 6 6 7 7 9 10 10 10 10 11 11 11 11 11 11 11 11 11 11 10 9 9 8 8 8 8 8 8
6 4 4 4 4 5 5 5 5 4 4 4 4 4 5 5 5 6 6 7 8 9 10 10 10 10 10 10 11 11 11 11 11 11 11 9 9 8 7 7 7 7 7
7 6 4 3 5 6 4 3 3 4 4 4 3 3 3 3 3 4 5 6 6 7 8 9 9 9 10 10 10 10 11 10 10 10 10 10 8 8 7 6 6 6 7
8 6 4 4 6 4 4 4 4 3 4 4 3 2 2 2 2 4 4 5 6 7 7 7 8 8 8 9 9 9 10 10 10 10 10 9 8 8 8 7 6 6 6
7 5 4 5 5 4 4 4 4 4 3 2 3 2 1 1 2 3 4 4 4 5 5 6 5 5 6 8 8 9 9 9 10 10 9 9 8 7 7 7 6 6 6
6 5 4 4 4 4 4 4 4 4 3 3 2 2 2 2 3 3 2 3 4 5 5 5 4 5 5 5 7 8 8 9 9 9 9 8 8 7 7 7 6 6 6
5 5 3 3 4 3 4 4 3 3 2 3 2 1 2 3 4 2 2 2 3 3 3 4 5 5 5 5 5 7 8 8 8 8 8 8 8 8 7 7 6 6 6
4 4 3 3 3 3 3 2 3 3 2 3 2 1 1 0 2 2 3 3 2 2 2 4 5 5 5 6 6 6 7 8 8 7 7 8 8 8 7 7 6 6 6
4 4 3 3 2 2 2 2 3 2 2 3 3 3 2 1 0 1 3 3 2 3 2 3 4 6 7 7 7 7 7 7 8 7 7 7 7 7 6 6 6 6 6
4 4 3 2 2 2 2 2 2 2 2 2 2 3 3 3 2 1 2 3 3 3 2 2 3 4 6 6 6 7 7 7 7 7 7 7 7 7 6 6 6 6 6
2 3 3 3 2 2 2 1 2 2 2 2 2 2 2 1 2 1 1 2 2 2 2 2 2 3 5 6 5 6 6 6 6 6 7 7 6 6 6 6 6 6 6
1 1 2 2 2 2 1 2 1 1 1 2 2 2 2 2 1 1 1 1 2 2 1 1 2 3 3 5 5 5 4 4 4 5 6 6 6 5 5 6 6 7 6
1 1 1 1 2 2 2 2 1 1 1 1 2 2 1 2 2 1 1 1 2 2 1 0 1 2 4 5 4 3 2 2 3 4 4 5 5 5 4 5 6 6 6
1 2 1 1 1 2 2 2 1 1 1 1 1 1 1 1 1 1 1 0 0 2 2 1 1 2 3 3 2 2 1 1 1 2 2 3 4 4 4 5 5 5 5
1 1 1 1 2 2 2 1 1 1 1 1 1 1 1 1 1 1 1 1 1 0 1 1 1 0 1 2 2 2 2 1 1 1 1 1 2 3 3 4 4 4 4
1 1 1 1 1 1 1 2 1 2 2 2 2 1 1 1 1 1 1 1 2 1 1 2 1 0 1 1 1 2 2 1 1 2 2 1 0 1 2 2 3 3 4
1 1 2 1 1 1 1 1 1 2 2 2 2 1 1 1 1 0 0 0 1 1 1 3 2 1 0 1 1 2 1 2 1 2 3 3 3 2 2 2 2 2 2
1 1 1 1 1 1 1 1 1 1 2 2 2 2 1 1 1 1 1 1 1 2 1 2 2 2 1 1 1 2 2 1 2 2 3 4 4 4 4 3 2 2 2
1 0 0 0 1 1 1 1 1 1 2 2 2 2 2 2 1 1 1 1 1 1 1 2 2 2 1 1 0 1 1 2 2 2 1 2 3 4 4 4 4 3 3
1 1 1 1 1 1 1 2 2 2 2 2 2 2 2 3 4 2 2 1 1 1 2 2 2 1 1 1 1 1 1 2 2 1 0 1 1 2 3 4 5 5 5
1 1 1 2 2 2 3 4 4 2 2 2 2 2 2 2 3 4 4 3 2 2 2 2 2 2 2 2 1 1 0 1 2 1 0 2 1 1 2 4 6 6 5
1 1 1 2 2 2 4 4 5 3 3 2 2 2 3 3 3 2 4 5 5 5 4 3 2 3 2 2 2 1 1 1 2 2 0 2 1 2 2 3 6 7 6
1 1 1 1 1 1 3 4 6 3 3 3 2 2 2 2 4 4 3 3 3 4 4 4 3 3 3 3 3 3 2 2 2 1 1 1 2 2 2 3 6 7 7
1 1 0 1 1 1 4 5 5 3 3 3 3 3 2 2 5 6 3 4 4 4 5 6 5 4 4 5 3 1 1 1 1 2 1 1 1 2 2 2 4 7 7
0 0 1 1 1 1 3 5 5 2 2 3 3 3 4 4 5 6 3 3 4 4 3 3 3 4 4 4 4 3 3 2 1 2 1 1 1 1 2 2 1 3 4
Wind_Direction
55 55 56 62 55 53 52 45 48 52 48 46 53 57 59 69 76 77 73 69 64 62 61 60 58 57 55 55 54 51 50 47 49 52 54 57 68 74 71 71 72 72 74
54 49 54 51 50 48 48 51 51 55 51 45 44 50 51 67 77 84 83 75 66 62 61 61 59 58 58 56 55 53 50 47 50 51 52 60 67 69 70 70 75 75 75
55 48 48 52 48 42 45 53 52 56 56 47 37 42 49 50 68 78 90 92 79 70 65 61 59 58 56 56 55 54 51 49 50 51 51 58 64 66 68 71 74 74 76
59 56 45 42 47 44 45 42 50 45 44 41 32 30 48 46 58 64 77 90 93 84 76 67 62 59 56 55 53 53 51 49 50 50 50 53 58 62 65 67 72 76 79
52 58 51 43 46 46 38 32 41 46 51 37 22 27 28 26 36 48 51 66 85 95 95 83 70 62 56 55 52 52 49 46 50 48 47 49 53 57 60 62 68 75 80
57 57 61 50 48 52 39 37 43 34 42 22 13 31 25 32 41 48 39 47 68 83 86 94 93 76 60 57 53 52 48 52 51 47 46 47 47 50 56 59 66 72 74
61 57 53 54 52 55 49 46 44 31 32 26 29 12 360 34 53 51 42 37 42 65 73 85 89 82 76 63 55 52 49 52 53 49 47 45 45 47 55 58 63 70 74
59 55 53 60 59 54 48 43 46 34 11 17 28 12 11 357 11 27 33 33 31 43 59 72 84 83 80 80 65 56 54 48 49 48 45 43 47 48 52 55 62 69 75
62 59 49 57 65 64 59 38 42 41 9 350 17 46 47 348 333 344 12 29 29 21 31 57 74 85 79 86 74 62 58 50 44 43 44 47 47 47 49 49 55 64 71
43 50 54 58 58 62 65 31 46 23 22 356 354 8 33 58 133 335 343 6 15 25 19 33 63 71 74 81 77 66 66 53 44 41 42 42 43 41 46 50 55 65 70
35 31 30 46 50 54 56 37 40 22 17 5 360 359 10 355 3 53 320 332 355 10 17 26 64 76 80 81 78 73 69 55 45 40 37 38 39 36 46 56 61 68 71
31 28 27 28 36 38 43 45 43 26 15 6 3 6 6 357 348 31 345 328 336 333 1 23 62 83 90 87 76 76 74 59 46 40 34 32 33 35 50 64 68 72 73
21 13 39 26 14 7 30 49 42 17 7 5 360 358 6 352 359 48 40 334 331 317 354 18 60 83 85 94 86 72 73 62 49 41 34 26 26 33 51 63 69 72 73
28 9 44 34 19 11 13 36 45 4 12 2 360 2 351 346 10 45 79 13 336 333 353 341 35 81 73 83 80 58 74 63 45 31 28 27 27 33 49 65 69 71 71
14 25 29 29 32 19 15 37 29 345 1 351 339 0 358 349 1 28 54 142 237 325 323 354 32 40 55 78 64 33 48 101 25 10 16 23 26 37 56 64 72 75 72
37 15 29 20 22 25 19 31 28 339 351 338 354 20 15 23 14 14 29 349 355 298 300 309 317 3 53 33 36 14 13 339 280 284 289 5 34 45 70 65 70 79 79
72 45 58 39 37 24 19 49 12 347 346 343 346 14 14 13 8 360 4 6 356 351 304 317 335 40 47 351 5 339 329 257 242 230 215 209 185 89 92 80 77 84 82
63 45 52 35 45 49 43 62 3 353 349 341 342 357 346 355 360 347 356 319 317 319 301 304 311 324 320 287 289 279 309 307 265 231 216 211 207 204 161 137 109 100 93
65 54 67 35 51 58 45 44 33 354 345 340 349 352 329 306 289 275 259 249 258 298 297 292 289 300 303 280 325 300 295 290 285 246 223 223 216 201 188 182 180 168 151
78 35 95 41 43 51 54 29 4 350 351 341 343 347 335 333 312 278 266 264 267 279 279 287 280 289 271 281 304 303 327 324 302 291 243 232 217 210 200 201 204 200 193
35 12 39 65 36 35 30 22 0 349 351 334 337 347 345 5 5 350 328 305 289 285 288 283 276 297 287 315 283 273 303 298 298 247 121 236 209 204 210 213 211 209 204
27 24 42 50 30 12 17 13 355 339 326 311 313 314 311 329 335 340 334 322 312 298 289 282 267 268 267 261 266 291 252 307 288 278 88 281 219 217 231 200 202 205 210
32 16 31 64 58 34 22 9 348 329 306 295 299 310 314 314 329 299 298 302 295 292 280 263 249 256 258 258 237 273 261 252 251 253 108 272 263 250 250 225 206 203 212
59 24 20 47 82 13 8 358 343 322 307 305 295 284 286 306 314 316 291 283 279 282 274 264 243 250 250 249 227 217 242 264 263 255 157 241 282 273 265 247 225 210 209
28 341 29 37 53 17 1 355 345 315 311 313 313 317 319 306 318 321 304 289 286 280 267 265 267 275 281 274 250 211 251 271 269 267 209 183 253 297 284 258 223 212 209
299 299 50 68 69 52 359 359 358 340 327 320 318 328 334 326 319 323 299 280 279 282 293 293 286 281 273 276 268 217 202 222 228 251 243 162 238 346 310 292 244 202 208
Height
1528 1528 1528 1528 1528 1527 1527 1527 1527 1527 1527 1526 1526 1526 1526 1526 1525 1525 1525 1525 1524 1523 1523 1522 1522 1521 1520 1520 1519 1519 1518 1517 1517 1516 1516 1516 1515 1515 1515 1516 1516 1516 1516
1530 1530 1530 1529 1529 1529 1528 1528 1528 1528 1528 1528 1528 1527 1527 1527 1526 1526 1526 1525 1525 1524 1523 1523 1522 1522 1521 1520 1520 1519 1518 1518 1517 1516 1516 1516 1515 1515 1516 1516 1516 1516 1516
1531 1531 1531 1531 1530 1530 1530 1530 1530 1529 1529 1529 1529 1528 1528 1528 1528 1527 1526 1526 1525 1525 1524 1523 1523 1522 1522 1521 1520 1520 1519 1518 1517 1517 1516 1516 1516 1515 1516 1516 1516 1516 1516
1532 1532 1532 1532 1532 1531 1531 1531 1531 1530 1530 1530 1529 1529 1529 1529 1528 1528 1527 1526 1526 1525 1524 1524 1523 1522 1522 1521 1521 1520 1519 1518 1518 1517 1516 1516 1515 1515 1515 1515 1516 1516 1516
1533 1532 1532 1532 1532 1532 1532 1532 1531 1531 1530 1530 1530 1530 1530 1529 1529 1529 1528 1527 1526 1525 1525 1524 1523 1523 1522 1521 1521 1520 1519 1518 1518 1517 1516 1516 1515 1515 1515 1515 1515 1515 1516
1533 1533 1533 1533 1533 1532 1532 1532 1532 1532 1531 1531 1530 1530 1530 1530 1529 1529 1528 1528 1527 1526 1525 1524 1523 1523 1522 1522 1521 1520 1520 1519 1518 1517 1516 1516 1515 1514 1514 1514 1514 1514 1515
1534 1534 1534 1533 1533 1533 1532 1533 1532 1532 1531 1531 1531 1530 1530 1530 1530 1529 1528 1528 1527 1526 1525 1524 1524 1523 1522 1522 1521 1521 1520 1519 1518 1517 1516 1515 1514 1514 1514 1513 1513 1513 1514
1534 1534 1534 1534 1533 1533 1533 1533 1532 1532 1532 1532 1532 1530 1530 1531 1530 1530 1529 1528 1527 1526 1526 1525 1524 1523 1522 1522 1522 1521 1520 1519 1518 1517 1516 1515 1514 1513 1513 1513 1513 1513 1513
1535 1534 1534 1534 1534 1533 1533 1533 1533 1533 1532 1533 1533 1532 1532 1531 1530 1530 1529 1528 1528 1526 1526 1525 1525 1524 1523 1522 1522 1521 1520 1519 1518 1517 1516 1515 1514 1513 1512 1512 1512 1512 1513
1535 1534 1534 1534 1534 1534 1533 1533 1533 1533 1533 1532 1532 1532 1532 1531 1531 1530 1530 1529 1528 1527 1526 1525 1525 1524 1523 1522 1522 1521 1520 1519 1518 1517 1516 1515 1514 1512 1511 1511 1511 1512 1512
1534 1534 1534 1534 1534 1533 1533 1533 1533 1533 1533 1532 1532 1532 1531 1531 1530 1530 1529 1528 1527 1526 1526 1525 1524 1524 1523 1522 1521 1521 1520 1519 1518 1517 1516 1515 1513 1512 1511 1510 1510 1511 1512
1533 1533 1533 1533 1533 1533 1533 1533 1532 1532 1532 1532 1532 1531 1531 1530 1530 1529 1528 1527 1527 1526 1525 1524 1524 1523 1523 1522 1521 1520 1519 1519 1518 1517 1516 1515 1514 1512 1511 1510 1511 1511 1512
1532 1532 1532 1532 1532 1532 1532 1532 1532 1532 1531 1531 1531 1530 1530 1530 1529 1529 1528 1527 1526 1525 1524 1523 1523 1523 1522 1522 1521 1520 1519 1519 1518 1517 1516 1515 1514 1513 1512 1512 1512 1512 1513
1532 1532 1532 1531 1531 1531 1531 1531 1531 1531 1530 1530 1530 1529 1529 1528 1528 1528 1527 1527 1525 1524 1524 1523 1523 1522 1522 1521 1521 1520 1519 1518 1517 1516 1515 1515 1514 1513 1513 1513 1512 1513 1513
1531 1531 1530 1530 1530 1530 1530 1530 1529 1529 1529 1529 1529 1528 1528 1527 1527 1526 1526 1526 1526 1524 1523 1522 1522 1521 1521 1520 1519 1519 1518 1518 1517 1516 1515 1514 1514 1513 1513 1513 1513 1513 1514
1530 1529 1529 1529 1529 1529 1528 1528 1528 1528 1528 1528 1528 1527 1526 1526 1525 1525 1525 1525 1525 1524 1522 1521 1521 1520 1519 1519 1518 1518 1517 1517 1516 1515 1515 1514 1514 1513 1513 1513 1513 1514 1514
1528 1528 1528 1528 1527 1527 1527 1527 1527 1527 1526 1526 1526 1526 1525 1524 1524 1523 1523 1523 1523 1523 1521 1520 1520 1519 1518 1517 1517 1516 1516 1515 1515 1515 1514 1514 1513 1513 1513 1513 1513 1513 1513
1527 1527 1527 1526 1526 1526 1526 1526 1525 1525 1525 1525 1524 1524 1523 1523 1523 1522 1522 1522 1522 1521 1520 1519 1518 1517 1517 1516 1515 1515 1514 1514 1514 1513 1513 1513 1512 1512 1512 1513 1513 1513 1513
1525 1525 1525 1525 1525 1524 1524 1524 1524 1524 1523 1523 1523 1522 1522 1522 1521 1521 1521 1520 1520 1519 1519 1517 1516 1516 1515 1515 1514 1514 1513 1513 1512 1512 1512 1512 1511 1511 1512 1512 1512 1512 1512
1524 1524 1524 1524 1524 1523 1523 1523 1522 1522 1522 1521 1521 1521 1521 1520 1520 1520 1519 1519 1518 1517 1516 1515 1515 1514 1513 1513 1513 1512 1511 1511 1511 1510 1510 1510 1510 1510 1510 1511 1511 1511 1511
1522 1522 1522 1522 1522 1522 1521 1521 1521 1520 1520 1520 1519 1519 1519 1519 1519 1518 1517 1517 1516 1515 1514 1513 1513 1512 1512 1511 1510 1510 1509 1509 1509 1509 1508 1509 1509 1509 1509 1509 1510 1510 1510
1519 1520 1520 1520 1520 1520 1520 1520 1519 1518 1518 1518 1517 1517 1517 1517 1516 1516 1515 1515 1515 1514 1512 1511 1511 1510 1510 1510 1509 1508 1508 1507 1507 1508 1507 1507 1507 1507 1507 1507 1508 1508 1508
1517 1518 1518 1518 1518 1518 1518 1517 1517 1517 1516 1516 1515 1515 1514 1514 1514 1513 1513 1512 1512 1511 1511 1510 1509 1508 1508 1508 1507 1507 1506 1506 1505 1505 1505 1504 1505 1504 1505 1505 1506 1506 1506
1515 1515 1515 1516 1516 1516 1516 1515 1515 1514 1514 1513 1513 1513 1512 1512 1511 1511 1510 1509 1508 1507 1507 1507 1506 1506 1506 1506 1505 1505 1504 1504 1503 1503 1503 1502 1502 1502 1503 1503 1504 1504 1504
1513 1513 1513 1514 1514 1513 1513 1513 1512 1512 1511 1511 1510 1510 1510 1509 1508 1508 1507 1506 1505 1504 1504 1504 1504 1503 1503 1503 1502 1502 1502 1501 1500 1501 1501 1500 1500 1500 1500 1500 1501 1501 1502
1511 1511 1511 1511 1511 1511 1511 1510 1510 1509 1508 1508 1508 1507 1507 1506 1505 1505 1504 1503 1502 1501 1501 1501 1500 1500 1500 1499 1499 1499 1498 1498 1498 1498 1498 1498 1498 1498 1497 1497 1498 1498 1499